Tracking 19846 objects as of 18-Sep-2019
HD Live streaming from Space Station
objects crossing your sky now

FENGYUN 1C DEB

Track FENGYUN 1C DEB now!
10-day predictions


NORAD ID: 31092
Int'l Code: 1999-025BGN
Perigee: 856.3 km
Apogee: 1,368.1 km
Inclination: 99.5 °
Period: 107.4 minutes
Semi major axis: 7483 km
RCS: 0.0082 m2 (small)
Launch date: May 10, 1999
Source: People's Republic of China (PRC)
Launch site: Taiyaun Space Center, China (TSC)

Note: This is SATELLITE DEBRIS
aabbcc
Your satellite tracking list
Your tracking list is empty




NASA's NSSDC Master Catalog

Two Line Element Set (TLE):
1 31092U 99025BGN 19260.45885301  .00000304  00000-0  44356-3 0  9994
2 31092  99.5136  87.7670 0341965 351.0692   8.4454 13.41135653613815
Source of the keplerian elements: AFSPC